{"data":{"norad_id":48227,"intl_designator":"2021-031T","name":"ONEWEB-0206","alt_names":[],"object_type":"PAYLOAD","status":"ACTIVE","operator":null,"country":"UK","launch_date":"2021-04-25","launch_site_code":"VOSTO","launch_vehicle":null,"mission":null,"orbit_class":"UNKNOWN","rcs_meters":null,"size_class":null,"mass_kg":null,"dimensions":null,"purposes":["comms"],"wikipedia_slug":null,"has_3d_model":false,"image_url":null,"decayed_at":null,"tle_current":{"epoch":"2026-09-20T00:41:53.918592Z","epoch_age_seconds":62694,"freshness":"FRESH","line1":"1 48227U 21031T   26263.02909628  .00000098  00000+0  23092-3 0  9990","line2":"2 48227  87.8905 270.7841 0002040  89.1311 271.0052 13.14501821260685","mean_motion":13.14501821,"eccentricity":0.000204,"inclination_deg":87.8905,"raan_deg":270.7841,"arg_perigee_deg":89.1311,"mean_anomaly_deg":271.0052,"bstar":0.00023092,"rev_number":26068,"period_min":109.54720465161,"perigee_km":1204.2469982101,"apogee_km":1207.3412421072,"semimajor_km":7583.9311201586,"source":"CELESTRAK","updated_at":"2026-09-20T09:00:44.595679Z"}}}